Weather History for Eureka, NV

Change the Weather History Date:

Tuesday, February 28, 2012

  Actual Average Record
Temperature  
Mean Temperature 25 °F 33 °F  
Max Temperature 37 °F 47 °F 65 °F (1980)
Min Temperature 13 °F 20 °F -4 °F (1993)
Degree Days  
Heating Degree Days 40 32  
Month to date heating degree days 993 1003  
Since 1 July heating degree days 4749 5285  
Cooling Degree Days 0 0  
Month to date cooling degree days 0 0  
Year to date cooling degree days 0 0  
Moisture  
Dew Point 19 °F    
Average Humidity 68    
Maximum Humidity 92    
Minimum Humidity 44    
Precipitation  
Precipitation 0.00 in 0.03 in 0.39 in (2006)
Month to date precipitation 0.86 0.86  
Year to date precipitation 1.07 1.60  
Sea Level Pressure  
Sea Level Pressure 29.93 in    
Wind  
Wind Speed 7 mph (SSW)    
Max Wind Speed 18 mph    
Max Gust Speed 22 mph    
T = Trace of Precipitation, MM = Missing Value Source: NWS Daily Summary

Daily Weather History Graph

Daily Weather History Graph

Search for Another Location

Airport:

Trip Planner

Search our weather history database for the weather conditions in past years. The results will help you decide how hot, cold, wet, or windy it might be!

Date:

Astronomy

Feb. 28, 2012 Rise Set
Actual Time 6:19 AM PST 5:34 PM PST
Civil Twilight 5:52 AM PST 6:01 PM PST
Nautical Twilight 5:20 AM PST 6:32 PM PST
Astronomical Twilight 4:49 AM PST 7:04 PM PST
Moon 9:31 AM PST (2/28) No Moon Set
Length of Visible Light 12h 09m
Length of Day
11h 15m
Waxing Crescent, 39% of the Moon is Illuminated
Feb 28
Waxing Crescent
Feb 29
First Quarter
Mar 8
Full
Mar 14
Last Quarter
Mar 22
New

Hourly Weather History & Observations

Time (PST) Temp. Windchill Dew Point Humidity Pressure Visibility Wind Dir Wind Speed Gust Speed Precip Events Conditions
12:53 AM 21.0 °F 16.2 °F 19.0 °F 92% 29.76 in - SW 3.5 mph - N/A   Unknown
1:53 AM 23.0 °F - 19.9 °F 88% 29.78 in - Calm Calm - N/A   Unknown
2:53 AM 21.9 °F 17.2 °F 19.0 °F 89% 29.78 in - WSW 3.5 mph - N/A   Unknown
3:53 AM 19.9 °F 12.1 °F 17.1 °F 89% 29.82 in - WSW 5.8 mph - N/A   Unknown
4:53 AM 17.1 °F 6.6 °F 15.1 °F 92% 29.86 in - SW 8.1 mph - N/A   Unknown
5:53 AM 19.9 °F 9.3 °F 17.1 °F 89% 29.87 in - WSW 9.2 mph - N/A   Unknown
6:53 AM 16.0 °F - 12.9 °F 88% 29.93 in - Calm Calm - N/A   Unknown
7:53 AM 19.9 °F - 18.0 °F 92% 29.97 in - Calm Calm - N/A   Unknown
8:53 AM 24.1 °F 16.0 °F 21.0 °F 88% 29.99 in - South 6.9 mph - N/A   Unknown
9:53 AM 28.0 °F 19.3 °F 21.9 °F 78% 29.98 in - SW 9.2 mph - N/A   Unknown
10:53 AM 33.1 °F 24.9 °F 21.9 °F 64% 29.98 in - NW 10.4 mph - N/A   Unknown
11:53 AM 30.9 °F 25.2 °F 21.9 °F 69% 30.00 in - SW 5.8 mph - N/A   Unknown
12:53 PM 34.0 °F 26.6 °F 21.0 °F 59% 29.98 in - SW 9.2 mph - N/A   Unknown
1:53 PM 34.0 °F 28.0 °F 19.0 °F 54% 29.97 in - South 6.9 mph - N/A   Unknown
2:53 PM 36.0 °F 28.5 °F 16.0 °F 44% 29.96 in - SSW 10.4 mph - N/A   Unknown
3:53 PM 36.0 °F 30.3 °F 17.1 °F 46% 29.96 in - South 6.9 mph - N/A   Unknown
4:53 PM 32.0 °F 21.2 °F 21.9 °F 66% 29.99 in - SSE 16.1 mph - N/A   Unknown
5:53 PM 30.0 °F 21.7 °F 21.0 °F 69% 30.00 in - SSE 9.2 mph - N/A   Unknown
6:53 PM 28.9 °F 21.9 °F 19.0 °F 67% 30.02 in - SSE 6.9 mph - N/A   Unknown
7:53 PM 30.0 °F 26.5 °F 18.0 °F 61% 30.00 in - Variable 3.5 mph - N/A   Unknown
8:53 PM 28.9 °F 25.2 °F 19.0 °F 67% 30.00 in - SSW 3.5 mph - N/A   Unknown
9:53 PM 30.0 °F 22.4 °F 19.0 °F 64% 29.97 in - SSE 8.1 mph - N/A   Unknown
10:53 PM 30.0 °F 21.7 °F 19.9 °F 66% 29.92 in - South 9.2 mph - N/A   Unknown
11:53 PM 30.9 °F 22.2 °F 21.0 °F 67% 29.91 in - South 10.4 mph - N/A   Unknown